Location: ??? ?????
(30.6482°N, 60.5850°E)
Time: 21:34:12
(UTC+00:00)

H-2A R/B - Pass Details

Date: 09 April 2020
Orbit: 734 x 836 km, 98.2° (Epoch: 25 May)

Event Time Altitude Azimuth Distance (km) Brightness Sun altitude
Exits shadow 16:32:36 - 203° (SSW) 2,699 4.8 -27.3°
Reaches altitude 10° 16:33:36 10° 209° (SSW) 2,369 4.5 -27.5°
Maximum altitude 16:37:50 25° 263° (W) 1,561 4.0 -28.3°
Drops below altitude 10° 16:41:59 10° 317° (NW) 2,325 5.4 -29.0°
Sets 16:44:40 0° 331° (NNW) 3,238 6.1 -29.5°
